Find Starlink 6217

NORAD ID: 57058 Int'l Des: 2023-088 Owner: SPXS Country: US Constellation: starlink operational
LEOCIRCULAR

当前视图

正在加载3D地球...

About Starlink 6217

Starlink 6217 (NORAD 57058) is a starlink constellation satellite (v1.5) launched Jun 22, 2023 by SPXS of US. It operates in LEO, CIRCULAR orbit with a mass of 305.00 kg.

关于 Starlink 6217

正在加载描述...

即将过境

Passes for default location (London). Set your location on the main map for personalized predictions.

高度历史

Loading altitude history...

两行轨道根数

1 57058C 23088L 26173.80881944 -.00028338 00000+0 -10264-2 0 1731
2 57058 43.0000 236.6491 0001383 274.6029 70.8234 15.27593018 16
Epoch: Jun 22, 2026 • Age: 18 hours

当前状态

高度 482.6 km
速度 7.63 km/s
星下点 7.09°N, 69.11°W
发射日期 Jun 22, 2023
运行时间 3 years
类型 internet

技术详情

分类 Payload
质量 305.00 kg
干质量 290.00 kg
总质量 305.00 kg
长度 0.20 m
直径 2.80 m
跨度 9.00 m
形状 Box + pan
制造商 SPXS
平台类型 Starlink
阶段状态 In Orbit
所有者/国家 SPXS/US

Most Searched